EST,Max TemperatureF,Mean TemperatureF,Min TemperatureF,Max Dew PointF,MeanDew PointF,Min DewpointF,Max Humidity, Mean Humidity, Min Humidity, Max Sea Level PressureIn, Mean Sea Level PressureIn, Min Sea Level PressureIn, Max VisibilityMiles, Mean VisibilityMiles, Min VisibilityMiles, Max Wind SpeedMPH, Mean Wind SpeedMPH, Max Gust SpeedMPH,PrecipitationIn, CloudCover, Events, WindDirDegrees
2013-12-1,82,71,60,21,12,3,12,11,10,30.14,30.06,29.98,10,8,0,10,6,,0.00,4,,12
2013-12-2,80,72,64,19,11,9,11,11,10,29.98,29.91,29.85,10,9,0,10,4,,0.00,5,,325
2013-12-3,84,72,60,21,12,5,12,11,10,30.00,29.95,29.91,10,10,10,13,5,17,0.00,4,,144
2013-12-4,84,74,64,25,14,7,11,11,10,30.09,30.04,29.98,10,10,10,12,3,16,0.00,3,,163
2013-12-5,87,74,62,27,14,7,11,11,10,30.16,30.11,30.08,10,10,9,14,2,18,0.00,0,,142
2013-12-6,87,76,64,,,,,,,30.18,30.13,30.08,10,10,8,,,,0.00,,,-1
2013-12-7,91,76,62,,,,,,,30.22,30.17,30.12,10,10,10,,,,0.00,,,-1
2013-12-8,89,76,66,,,,,,,30.20,30.15,30.10,10,10,10,,,,0.00,,,-1
2013-12-9,87,76,66,,,,,,,30.18,30.13,30.09,10,10,10,,,,0.00,,,-1
2013-12-10,89,76,62,,,,,,,30.17,30.12,30.08,10,10,10,,,,0.00,1,,-1
2013-12-11,87,76,64,,,,,,,30.21,30.16,30.12,10,10,7,14,8,18,0.21,4,,57
2013-12-12,80,70,59,,,,,,,30.25,30.19,30.15,10,10,7,16,7,21,0.01,3,,29
2013-12-13,84,68,53,,,,,,,30.21,30.14,30.08,10,10,10,14,10,18,0.00,1,,58
2013-12-14,87,76,64,,,,,,,30.09,30.03,29.98,10,10,9,18,7,25,0.00,2,,131
2013-12-15,80,74,68,,,,,,,30.08,30.00,29.95,10,10,5,14,7,20,0.18,3,,243
2013-12-16,77,66,57,,,,,,,30.18,30.12,30.07,10,10,10,13,8,20,0.00,3,,1
2013-12-17,80,65,50,,,,,,,30.21,30.16,30.10,10,10,10,15,9,20,0.00,1,,26
2013-12-18,77,65,53,,,,,,,30.27,30.21,30.16,10,10,10,15,8,20,0.00,0,,32
2013-12-19,82,66,51,,,,,,,30.24,30.19,30.13,10,10,5,14,8,21,0.00,0,,61
2013-12-20,84,72,60,,,,,,,30.16,30.13,30.08,10,10,10,20,8,28,0.00,2,,83
2013-12-21,87,76,66,,,,,,,30.13,30.08,30.03,10,10,9,18,8,24,0.00,1,,117
2013-12-22,87,76,66,,,,,,,30.15,30.10,30.07,10,10,10,21,7,28,0.00,0,,126
2013-12-23,87,78,68,,,,,,,30.18,30.14,30.11,10,10,0,16,6,21,0.00,1,,136
2013-12-24,82,70,59,,,,,,,30.21,30.15,30.10,10,10,2,18,6,25,0.00,4,,18
2013-12-25,84,70,57,,,,,,,30.17,30.13,30.08,10,10,10,15,11,22,0.00,3,,56
2013-12-26,82,73,64,,,,,,,30.17,30.11,30.06,10,10,10,15,8,18,0.00,5,,60
2013-12-27,86,76,66,,,,,,,30.20,30.14,30.07,10,9,4,13,9,17,0.00,3,,56
2013-12-28,84,75,66,,,,,,,30.16,30.09,30.02,10,10,10,16,8,22,0.00,2,,90
2013-12-29,78,74,69,,,,,,,30.04,29.98,29.93,10,10,7,17,7,23,0.09,3,,178
2013-12-30,84,74,66,,,,,,,30.15,30.07,30.00,10,10,10,12,5,,0.00,7,,5
2013-12-31,78,71,64,,,,,,,30.24,30.18,30.12,10,10,10,18,11,24,0.00,4,,39